IZ1MEU-13 Weather Reports


time (UTC)temp
C
wind
direction
speed
KPH
gust
KPH
rain 1hr
cm
rain 24hr
cm
rain mn
cm
humidity
%
barometer
mb
20260506070508 12 0.0 0.0 0.00 0.00 0.00 64 1009.9
20260506062459 12 0.0 0.0 0.00 0.00 0.00 64 1009.9
20260506060455 12 0.0 0.0 0.00 0.00 0.00 65 1010.1
20260506050442 11 0.0 0.0 0.00 0.00 0.00 66 1010.5
20260506044437 10 0.0 0.0 0.00 0.00 0.00 66 1010.7
20260506042432 10 0.0 0.0 0.00 0.00 0.00 66 1010.9
20260506040428 11 0.0 0.0 0.00 0.00 0.00 66 1011.0
20260506034423 10 0.0 0.0 0.00 0.00 0.00 66 1011.2
20260506032418 10 0.0 0.0 0.00 0.00 0.00 66 1011.2
20260506030413 10 0.0 0.0 0.00 0.00 0.00 65 1011.6
20260506024409 10 0.0 0.0 0.00 0.00 0.00 66 1011.5
20260506022404 10 0.0 0.0 0.00 0.00 0.00 66 1011.9
20260506020400 10 0.0 0.0 0.00 0.00 0.00 67 1012.1
20260506014356 10 0.0 0.0 0.00 0.00 0.00 67 1012.0
20260506012351 10 0.0 0.0 0.00 0.00 0.00 65 1012.1
20260506010347 11 0.0 0.0 0.00 0.00 0.00 64 1012.5
20260506004343 11 0.0 0.0 0.00 0.00 0.00 64 1013.0
20260506002338 11 0.0 0.0 0.00 0.00 0.00 63 1013.4
20260506000334 11 0.0 0.0 0.00 0.00 0.00 63 1013.6
20260505234330 11 0.0 0.0 0.00 0.00 0.00 63 1014.0
20260505232326 11 0.0 0.0 0.00 0.00 0.00 63 1014.0
20260505230321 11 0.0 0.0 0.00 0.00 0.00 63 1013.9
20260505224317 11 0.0 0.0 0.00 0.00 0.00 63 1014.1
20260505222312 11 0.0 0.0 0.00 0.00 0.00 63 1014.4
20260505220308 11 0.0 0.0 0.00 0.00 0.00 63 1014.4
20260505214303 11 0.0 0.0 0.00 0.00 0.00 64 1014.4
20260505212259 11 0.0 0.0 0.00 0.00 0.00 63 1014.8
20260505210255 11 0.0 0.0 0.00 0.00 0.00 64 1014.7
20260505204250 11 0.0 0.0 0.00 0.00 0.00 64 1014.9
20260505202246 11 0.0 0.0 0.00 0.00 0.00 63 1014.9
20260505200241 11 0.0 0.0 0.00 0.00 0.00 63 1014.8
20260505194237 11 0.0 0.0 0.00 0.00 0.00 63 1014.8
20260505192233 11 0.0 0.0 0.00 0.00 0.00 64 1014.5
20260505190228 11 0.0 0.0 0.00 0.00 0.00 63 1014.5
20260505184224 11 0.0 0.0 0.00 0.00 0.00 62 1014.5
20260505182219 12 0.0 0.0 0.00 0.00 0.00 61 1014.5
20260505180215 12 0.0 0.0 0.00 0.00 0.00 61 1014.5
20260505174210 12 0.0 0.0 0.00 0.00 0.00 62 1014.4
20260505173606 12 0.0 0.0 0.00 0.00 0.00 61 1014.5
20260505171601 12 0.0 0.0 0.00 0.00 0.00 61 1014.5
20260505165557 12 0.0 0.0 0.00 0.00 0.00 59 1014.5
20260505163553 12 0.0 0.0 0.00 0.00 0.00 59 1014.6
20260505161549 13 0.0 0.0 0.00 0.00 0.00 58 1014.6
20260505151536 13 0.0 0.0 0.00 0.00 0.00 58 1014.7
20260505123505 12 0.0 0.0 0.00 0.00 0.00 60 1015.5
20260505121501 12 0.0 0.0 0.00 0.00 0.00 59 1015.5
20260505115457 13 0.0 0.0 0.00 0.00 0.00 57 1015.6
20260505113453 13 0.0 0.0 0.00 0.00 0.00 58 1015.5
20260505111450 13 0.0 0.0 0.00 0.00 0.00 58 1015.7
20260505101438 11 0.0 0.0 0.00 0.00 0.00 61 1015.9
20260505095435 11 0.0 0.0 0.00 0.00 0.00 61 1016.0
20260505093431 11 0.0 0.0 0.00 0.00 0.00 61 1016.0
20260505091427 11 0.0 0.0 0.00 0.00 0.00 60 1015.7
20260505085423 10 0.0 0.0 0.00 0.00 0.00 61 1015.7
20260505083415 10 0.0 0.0 0.00 0.00 0.00 61 1015.6
20260505081410 10 0.0 0.0 0.00 0.00 0.00 62 1015.7
20260505075406 10 0.0 0.0 0.00 0.00 0.00 62 1015.7
20260505073402 10 0.0 0.0 0.00 0.00 0.00 63 1015.5
20260505071358 10 0.0 0.0 0.00 0.00 0.00 63 1015.5